FENGYUN 1C DEB

Satellite information

Favourite Embed

Satellite Type and Status

DEBRISIN ORBIT

Key statistics

Satellite FENGYUN 1C DEB at a glance.

Uptime

9494

Days in orbit

Revolutions

≈ 14.4

Per day

Orbit

SSO

Sun Synchronous Orbit

Inclination

99.8

Latest

Satellite identification and parameters

Extended collection of information and parameters for FENGYUN 1C DEB.

Object identification

Identified? True

Debris? True

Object name: FENGYUN 1C DEB

International designator: 1999-025CEP

Object number (NORAD): 31740

Object ID (CCSDS): 31740

Country: PEOPLES REPUBLIC OF CHINA (PRC)

Current information (Y/N): Y

RCS size: SMALL

Orbital parameters

Period: 100.0 minutes

Inclination: 99.8053 deg

SMA: 7136.644 km

Apoapsis: 775.645 km

Periapsis: 741.372 km

RAAN: 264.8126 deg

Eccentricy: 0.0024012

Argument of periapsis: 345.24 deg

Mean anomaly: 166.1326 deg

Mean motion: 14.39997473 rev/day

Mean motion (dot): 0.00005305 rev/day2

B* drag term: 0.001695 1/REarth

Two-line elements (TLE)

Creation date: May 6, 2025, 3:54 a.m.

Reference frame: TEME

Reference center: EARTH

Epoch: May 5, 2025, 9 p.m. UTC

TLE line 0: 0 FENGYUN 1C DEB

TLE line 1: 1 31740U 99025CEP 25125.87563745 .00005305 00000-0 16950-2 0 9996

TLE line 2: 2 31740 99.8053 264.8126 0024012 345.2400 166.1326 14.39997473618946

Live tracking on map

Real-time ground track for satellite FENGYUN 1C DEB.

In-orbit conjunctions

A list of the most updated potential collisions computed for object FENGYUN 1C DEB.

Target Orbit TCA Probability of collision Miss distance Type
COSMOS 158 LEO 2025-05-06 14:02:24 0.0001687213 325.0 (m) PAYLOAD
SPOT 1 SSO 2024-07-19 07:04:05 0.0001211406 915.0 (m) PAYLOAD

Associated space launch

Chinese polar orbiting meteorological satellite

FENGYUN 1C DEB was lifted into orbit during the mission ‘Long March 4B | Feng Yun 1C’, on board a Long March 4B space rocket.

The launch took place on May 10, 1999, 1:33 a.m. from Launch Complex 7.

For more information about the launch, click the button.

Launch to space Long March 4B | Feng Yun 1C
Long March 4B | Feng Yun 1C

Agency: N/A

Status: Launch Successful

Launch date: May 10, 1999, 1:33 a.m. UTC

Rocket: Long March 4B

Launch pad: Launch Complex 7

Location: Taiyuan Satellite Launch Center, People's Republic of China

...

Latest news about this satellite

There are no fresh news available about this satellite. Check back as we update our databases every day.


Newsletter sign-up

Weekly statistics, charts and insights to help you stay on top of the space industry.